Location: ?
(35.4554°N, 139.3092°E)
Time: 21:47:21
(UTC+00:00)

Cosmos 2369 Rocket - Pass Details

Date: 21 April 2021
Orbit: 828 x 853 km, 71.0° (Epoch: 10 May)

Event Time Altitude Azimuth Distance (km) Brightness Sun altitude
Exits shadow 17:08:53 30° 116° (ESE) 1,461 3.5 -31.0°
Maximum altitude 17:09:33 30° 103° (ESE) 1,435 3.6 -30.9°
Drops below altitude 10° 17:14:22 10° 43° (NE) 2,442 5.5 -30.3°
Sets 17:17:03 0° 33° (NNE) 3,383 6.5 -29.9°
